Tracking 18980 objects as of 21-Feb-2018
HD Live streaming from Space Station
objects crossing your sky now

TELSTAR 303

Track TELSTAR 303 now!
TELSTAR 303 is classified as:


NORAD ID: 15826
Int'l Code: 1985-048D
Perigee: 35,887.4 km
Apogee: 35,926.7 km
Inclination: 15.2 °
Period: 1,441.9 minutes
Semi major axis: 42278 km
RCS: 5.0403 m2 (large)
Launch date: June 17, 1985
Source: United States (US)
Launch site: AIR FORCE EASTERN TEST RANGE (AFETR)
aabbcc
Your satellite tracking list
Your tracking list is empty




NASA's NSSDC Master Catalog

Two Line Element Set (TLE):
1 15826U 85048D   18051.46642491 +.00000097 +00000-0 +00000-0 0  9994
2 15826 015.1682 012.2013 0004648 273.1684 086.8044 00.99869039016155
Source of the keplerian elements: AFSPC